(50000) Quaoar
ephemeris date magn radius delta ra dec elong phase
Today19 Oct 202518.942.633 AU42.901 AU18h37m-15°12'73.7°1.3°
Opposition3 Jul 202618.742.610 AU41.603 AU18h46m-14°48'171.8°0.2°
(50000) Quaoar - 2025-10-19
astro.vanbuitenen.nl


 
-1 year
-1 month
-1 day
Now
+1 day
+1 month
+1 year

The interactive orbit chart above shows the body's path through the solar system and its position at the given date. Green and blue lines are shown perpendicular to the ecliptic plane: Green if the path is above the ecliptic plane, blue if it is below. (Left-click and drag to rotate the view; Right-click and drag to move the view; Use scroll wheel to zoom in our out.)

The orbital elements of Quaoar are:

            e (Eccentricity)                : 0.0366422
            a (Semimajor axis)              : 43.1628743
            i (Inclination)                 : 7.99125
            Ω (Longitude of ascending node) : 189.00522
            ω (Argument of perihelion)      : 163.78626
            M (Mean anomaly)                : 290.96617
            Epoch                           : 2025 May 05

            L (Longitude of perihelion)     : 172.94077
            B (Latitude of perihelion)      : 2.22466
            P (Orbital period in years)     : 283.57            
        

The light curve chart below shows the estimated development of the minor planet's magnitude.


The all-sky chart below shows the path of the minor planet over the same period as the light curve. The current position is marked yellow.





The following chart shows the path of the minor planet in the next few days. The field of view is optimized for (~10x50) binoculars and finderscopes.




Ephemerides:
Date       Time       RA (2000)    DEC (2000)    delta   radius  elong  phase   PA    magn
2025-10-19 00:00 UT   18 37 18.3   -15 12 25    42.901   42.633   73.7    1.3    84   18.9 
2025-10-19 07:40 UT   18 37 19.1   -15 12 28    42.907   42.633   73.4    1.3    84   18.9 
2025-10-20 00:00 UT   18 37 21.0   -15 12 33    42.918   42.633   72.8    1.3    84   18.9 
2025-10-21 00:00 UT   18 37 23.7   -15 12 42    42.934   42.633   71.8    1.3    84   18.9 
2025-10-22 00:00 UT   18 37 26.6   -15 12 50    42.950   42.633   70.8    1.3    83   18.9 
2025-10-23 00:00 UT   18 37 29.6   -15 12 58    42.965   42.633   69.8    1.3    83   18.9 
2025-10-24 00:00 UT   18 37 32.6   -15 13 05    42.981   42.633   68.9    1.2    83   18.9 
2025-10-25 00:00 UT   18 37 35.7   -15 13 13    42.997   42.633   67.9    1.2    83   18.9 
2025-10-26 00:00 UT   18 37 39.0   -15 13 20    43.012   42.633   66.9    1.2    83   18.9 
2025-10-27 00:00 UT   18 37 42.3   -15 13 28    43.028   42.632   66.0    1.2    83   18.9 
2025-10-28 00:00 UT   18 37 45.7   -15 13 35    43.043   42.632   65.0    1.2    83   18.9 
2025-10-29 00:00 UT   18 37 49.2   -15 13 42    43.058   42.632   64.0    1.2    82   18.9 
2025-10-30 00:00 UT   18 37 52.7   -15 13 48    43.073   42.632   63.0    1.2    82   18.9 
2025-10-31 00:00 UT   18 37 56.4   -15 13 55    43.088   42.632   62.1    1.2    82   18.9 
2025-11-01 00:00 UT   18 38 00.1   -15 14 01    43.103   42.632   61.1    1.2    82   18.9 
2025-11-02 00:00 UT   18 38 04.0   -15 14 07    43.118   42.632   60.1    1.2    82   18.9 
2025-11-03 00:00 UT   18 38 07.9   -15 14 13    43.132   42.632   59.1    1.1    81   18.9 
2025-11-04 00:00 UT   18 38 11.9   -15 14 19    43.146   42.632   58.2    1.1    81   18.9 
2025-11-05 00:00 UT   18 38 15.9   -15 14 25    43.161   42.632   57.2    1.1    81   18.9 
2025-11-06 00:00 UT   18 38 20.1   -15 14 30    43.175   42.632   56.2    1.1    81   18.9 
2025-11-07 00:00 UT   18 38 24.3   -15 14 35    43.188   42.631   55.3    1.1    81   18.9 
2025-11-08 00:00 UT   18 38 28.6   -15 14 40    43.202   42.631   54.3    1.1    80   18.9 
2025-11-09 00:00 UT   18 38 33.0   -15 14 45    43.216   42.631   53.3    1.1    80   18.9 
2025-11-10 00:00 UT   18 38 37.4   -15 14 50    43.229   42.631   52.3    1.1    80   18.9 
2025-11-11 00:00 UT   18 38 42.0   -15 14 54    43.242   42.631   51.4    1.0    80   18.9 
2025-11-12 00:00 UT   18 38 46.6   -15 14 58    43.255   42.631   50.4    1.0    80   18.9 
2025-11-13 00:00 UT   18 38 51.3   -15 15 02    43.268   42.631   49.4    1.0    79   18.9 
2025-11-14 00:00 UT   18 38 56.0   -15 15 06    43.281   42.631   48.5    1.0    79   18.9 
2025-11-15 00:00 UT   18 39 00.8   -15 15 09    43.293   42.631   47.5    1.0    79   18.9 
2025-11-16 00:00 UT   18 39 05.7   -15 15 13    43.305   42.631   46.5    1.0    79   18.9 
2025-11-17 00:00 UT   18 39 10.7   -15 15 16    43.317   42.630   45.5    0.9    78   18.9 
2025-11-18 00:00 UT   18 39 15.7   -15 15 19    43.329   42.630   44.6    0.9    78   18.9 


    Terminology:
            
    delta:  distance between minor planet and earth in AU
    radius: distance between minor planet and sun in AU
    magn:   magnitude (brightness) estimate    
    ra:     right ascension in hours (24h = 360deg)
    dec:    declination in degrees
    elong:  elongation in degrees (angle sun-earth-minor planet)    
    phase:  phase angle in degrees (angle sun-minor planet-earth)        
    AU:     Astronomical Unit (mean distance between earth and sun: 149597870.7 km
    

Orbital elements provided by the MPC (Minor Planet Center).
Calculations by a modified version of AAPlus, a C# implementation of the AA+ project by PJ Naughter from the algorithms presented in the book "Astronomical Algorithms" by Jean Meeus.
NGC2000 dso catalog and star labels from VizieR as provided by the Strasbourg astronomical Data Center.
Tycho2 catalog from the ESO archive.